Home > Weather > Tel Aviv > Past weeks

Flag for Israel Past Weather in Tel Aviv, Israel — Yesterday and Last 2 Weeks

Now
81 °F

Passing clouds.


Feels Like: 85 °F
Forecast: 79 / 87 °F
Wind: 2 mph from North

Location: Ben Gurion International Airport

Current Time: Jul 30, 2016 at 2:52:59 AM

Latest Report: Jul 30, 2016 at 2:20 AM


Visibility: N/A

Pressure: 29.68 "Hg

Humidity: 74%

Dew Point: 72 °F

Location of Tel AvivLocation

Past Weather in Tel Aviv — Graph

°F

Tel Aviv Temperature Yesterday

Maximum temperature yesterday: 90 °F (at 1:50 PM)
Minimum temperature yesterday: 75 °F (at 3:20 AM)
Average temperature yesterday: 83 °F

High & Low Weather Summary for the Past Weeks

 TemperatureHumidityPressure
High91 °F (Jul 15, 1:50 PM)84% (Jul 25, 5:20 AM)29.89 "Hg (Jul 25, 5:20 AM)
Low73 °F (Jul 22, 5:20 AM)20% (Jul 26, 8:50 PM)29.65 "Hg (Jul 19, 11:20 AM)
Average82 °F65%29.74 "Hg
* Reported Jul 15 1:20 AM — Jul 30 1:20 AM, Tel Aviv, Weather by CustomWeather, © 2016

Note: Actual official high and low records may vary slightly from our data, if they occured in-between our weather recording intervals... More about our weather records

Advertising

Tel Aviv Weather History for the Previous 24 Hours

Scroll right to see more
 ConditionsComfort  
Time TempWeatherWind HumidityBarometerVisibility
1:20 AM
Sat, Jul 30
81 °FPassing clouds.3 mph74%29.68 "HgN/A
12:50 AM82 °FPassing clouds.2 mph70%29.68 "HgN/A
12:20 AM82 °FPassing clouds.2 mph70%29.71 "HgN/A
11:50 PM
Fri, Jul 29
82 °FPassing clouds.3 mph70%29.71 "HgN/A
11:20 PM82 °FPassing clouds.5 mph74%29.71 "HgN/A
10:50 PM82 °FPassing clouds.5 mph74%29.71 "HgN/A
10:20 PM82 °FPassing clouds.3 mph74%29.71 "HgN/A
9:50 PM82 °FPassing clouds.6 mph74%29.68 "HgN/A
9:20 PM82 °FPassing clouds.5 mph74%29.68 "HgN/A
8:50 PM82 °FPassing clouds.6 mph74%29.68 "HgN/A
8:20 PM84 °FScattered clouds.8 mph70%29.68 "HgN/A
7:50 PM84 °FPassing clouds.8 mph70%29.68 "HgN/A
7:20 PM84 °FPassing clouds.9 mph70%29.65 "HgN/A
6:50 PM86 °FPassing clouds.10 mph66%29.65 "HgN/A
6:20 PM86 °FPassing clouds.12 mph66%29.65 "HgN/A
5:50 PM88 °FPassing clouds.13 mph62%29.65 "HgN/A
5:20 PM88 °FPassing clouds.10 mph62%29.65 "HgN/A
4:50 PM88 °FSunny.10 mph59%29.65 "Hg10 mi
4:20 PM88 °FSunny.10 mph59%29.65 "Hg10 mi
3:50 PM88 °FPassing clouds.10 mph59%29.68 "HgN/A
3:20 PM88 °FPassing clouds.10 mph59%29.68 "HgN/A
2:50 PM88 °FPassing clouds.10 mph59%29.68 "HgN/A
2:20 PM88 °FPassing clouds.10 mph59%29.68 "HgN/A
1:50 PM90 °FPassing clouds.12 mph55%29.68 "HgN/A
1:20 PM88 °FPassing clouds.12 mph59%29.68 "HgN/A
12:50 PM88 °FPassing clouds.9 mph55%29.68 "HgN/A
12:20 PM88 °FPassing clouds.9 mph55%29.71 "HgN/A
11:50 AM88 °FScattered clouds.8 mph55%29.71 "HgN/A
11:20 AM88 °FScattered clouds.8 mph55%29.71 "HgN/A
10:50 AM86 °FPassing clouds.9 mph59%29.71 "HgN/A
10:20 AM86 °FPassing clouds.5 mph55%29.71 "HgN/A
9:50 AM84 °FScattered clouds.5 mph62%29.71 "HgN/A
9:20 AM82 °FScattered clouds.5 mph66%29.71 "HgN/A
8:50 AM82 °FScattered clouds.5 mph66%29.74 "HgN/A
8:20 AM81 °FScattered clouds.6 mph66%29.71 "HgN/A
7:50 AM79 °FScattered clouds.8 mph70%29.74 "HgN/A
7:20 AM77 °FScattered clouds.6 mph69%29.71 "HgN/A
6:50 AM81 °FPassing clouds.3 mph66%29.71 "HgN/A
6:20 AM75 °FPassing clouds.3 mph74%29.71 "HgN/A
5:50 AM75 °FPassing clouds.5 mph78%29.71 "HgN/A
5:20 AM75 °FPassing clouds.3 mph78%29.71 "HgN/A
4:50 AM75 °FPassing clouds.6 mph78%29.71 "HgN/A
4:20 AM75 °FPassing clouds.5 mph78%29.71 "HgN/A
3:50 AM77 °FPassing clouds.3 mph74%29.71 "HgN/A
3:20 AM75 °FPassing clouds.6 mph78%29.71 "HgN/A
2:50 AM77 °FPassing clouds.7 mph74%29.71 "HgN/A
2:20 AM77 °FClear.6 mph79%29.71 "Hg10 mi
Weather by CustomWeather, © 2016

See weather overviewHow to use our weather pages